Track ORBCOMM FM116 now! 10-day predictions ORBCOMM FM116 is classified as:
1 41189U 15081L 23264.52599256 .00001224 00000-0 31375-3 0 9999 2 41189 47.0026 307.2917 0001822 349.7163 10.3684 14.55898347413171